This is the latest recevied weather packets stored in our database for station/object N5JXS. If no packets are shown the sender has not sent any weather packets the latest 1 day(s).
| Time | Temp. | Humidity | Pressure | Rain* | Wind** | Luminosity | Snow |
|---|---|---|---|---|---|---|---|
| 1836274639 | 12.78° C | 48% | 1026.8 hPa | 0 mm | 0.45 m/s, 106° | 0 W/m² | - |
| 1836274492 | 12.78° C | 50% | 1026.6 hPa | 0 mm | 0.45 m/s, 107° | 0 W/m² | - |
| 1836274337 | 12.78° C | 47% | 1027 hPa | 0 mm | 0 m/s | 0 W/m² | - |
| 1836274191 | 12.78° C | 49% | 1027 hPa | 0 mm | 0.45 m/s, 107° | 0 W/m² | - |
| 1836274036 | 12.78° C | 48% | 1027 hPa | 0 mm | 0 m/s | 0 W/m² | - |
| 1778031109 | -1.11° C | 98% | 1014.6 hPa | 0 mm | 0 m/s | 1 W/m² | - |
| 1778030805 | -1.11° C | 98% | 1014.6 hPa | 0 mm | 0 m/s | 2 W/m² | - |
| 1778030502 | -0.56° C | 98% | 1014.3 hPa | 0 mm | 0.89 m/s, 46° | 3 W/m² | - |
| 1778030199 | -0.56° C | 98% | 1014.3 hPa | 0 mm | 0 m/s | 4 W/m² | - |
| 1778029895 | 0° C | 98% | 1014 hPa | 0 mm | 0 m/s | 6 W/m² | - |
| 1778029594 | 0° C | 98% | 1014.4 hPa | 0 mm | 0 m/s | 8 W/m² | - |
| 1778029291 | 0° C | 98% | 1014.4 hPa | 0 mm | 0 m/s | 12 W/m² | - |
| 1778028988 | 0° C | 98% | 1014.4 hPa | 0 mm | 0.45 m/s, 57° | 9 W/m² | - |
| 1778028684 | 0° C | 98% | 1014.3 hPa | 0 mm | 0 m/s | 8 W/m² | - |
| 1778028381 | 0° C | 98% | 1014.3 hPa | 0 mm | 0 m/s | 8 W/m² | - |
| 1778028078 | 0° C | 98% | 1014.5 hPa | 0 mm | 0 m/s | 6 W/m² | - |
| 1778027774 | 0° C | 98% | 1014.4 hPa | 0 mm | 0 m/s | 8 W/m² | - |
| 1778027470 | 0° C | 98% | 1014.4 hPa | 0 mm | 0 m/s | 10 W/m² | - |
| 1778027167 | 0° C | 98% | 1014.5 hPa | 0 mm | 0.45 m/s, 37° | 10 W/m² | - |
| 1778026863 | 0° C | 98% | 1014.5 hPa | 0 mm | 0 m/s | 9 W/m² | - |
| 1778026559 | 0° C | 98% | 1014.4 hPa | 0 mm | 0 m/s | 7 W/m² | - |
| 1778026256 | 0.56° C | 98% | 1014.5 hPa | 0 mm | 0 m/s | 9 W/m² | - |
| 1778025954 | 0.56° C | 98% | 1014.1 hPa | 0 mm | 0 m/s | 10 W/m² | - |
| 1778025651 | 0.56° C | 98% | 1014.3 hPa | 0 mm | 0 m/s | 15 W/m² | - |
| 1778025349 | 0.56° C | 98% | 1014 hPa | 0 mm | 0 m/s | 12 W/m² | - |
* Rain latest hour (hover to see other rain measurements)
** Current wind speed in m/s (hover to see current wind gust speed)